Regional Weather Roundup
Issued by NWS

Home | Current Version | Previous Version | Graphics & Text | Print | Product List | Glossary On
Versions: 1 2 3 4 5 6 7 8 9 10 11 12 13 14 15 16 17 18 19 20 21 22 23 24 25 26 27 28 29 30 31 32 33 34 35 36 37 38 39 40 41 42 43 44 45 46 47 48 49 50
000
ASUS43 KMPX 031301
RWRMN
WEATHER ROUNDUP FOR MINNESOTA
NATIONAL WEATHER SERVICE TWIN CITIES/CHANHASSEN MN
800 AM CDT TUE MAY 03 2016


NOTE: "FAIR" INDICATES FEW OR NO CLOUDS BELOW 12,000 FEET WITH NO
SIGNIFICANT WEATHER AND/OR OBSTRUCTIONS TO VISIBILITY. N/A MEANS
CURRENT SKY AND/OR WEATHER CONDITIONS ARE NOT AVAILABLE.

MNZ060>063-068>070-031400-
   Twin Cities Metro

CITY           SKY/WX    TMP DP  RH WIND       PRES   REMARKS
TWIN CITIES    PTSUNNY   51  38  60 SW6       29.94S
ST PAUL        FAIR      52  40  63 CALM      29.94S
CRYSTAL        FAIR      55  38  52 W8        29.91F
BLAINE         MOSUNNY   54  39  58 W5        29.92S
EDEN PRAIRIE   FAIR      49  39  68 SW6       29.93F
SOUTH ST PAUL  FAIR      53  38  58 W3        29.93S
LAKE ELMO      FAIR      52  41  66 SW3       29.93S
$$
MNZ001>005-007-008-013>017-022>024-027-028-031400-
   Northwest Minnesota

CITY           SKY/WX    TMP DP  RH WIND       PRES   REMARKS
BEMIDJI        FAIR      54  36  51 W20       29.84S
HALLOCK        FAIR      55  37  50 NW18G24   29.82F
ROSEAU         PTSUNNY   54  41  62 W10       29.79S
WARROAD        FAIR      54  41  62 W8        29.79R
THIEF RVR FALL PTSUNNY   54  36  50 W14       29.85F
CROOKSTON      FAIR      54  41  62 W12       29.86F
FOSSTON        FAIR      48  37  66 W9        29.87S
DETROIT LAKES  FAIR      54  41  62 W10       29.91F
MOORHEAD       FAIR      50  41  71 W7        29.92F
PARK RAPIDS    FAIR      53  39  59 W14       29.87F
MAHNOMEN       FAIR      49  39  67 SW13      29.88F
$$
MNZ006-009>011-018-025>026-031400-
   North Central Minnesota

CITY           SKY/WX    TMP DP  RH WIND       PRES   REMARKS
BAUDETTE       CLOUDY    54  36  50 NW16G24   29.76R
FLAG ISLAND    PTSUNNY   50  39  66 NW15      29.76S
INTL FALLS     CLOUDY    51  36  56 W8        29.73S
WASKISH        PTSUNNY   54  43  66 W16G23    29.78F
BIG FORK       FAIR      55  36  47 W9G16     29.77F
LONGVILLE      FAIR      55  36  47 SW14G20   29.84F
GRAND RAPIDS   PTSUNNY   55  32  41 W13G21    29.82F
CRANE LAKE     FAIR      54  36  50 W6        29.74R
ORR            CLOUDY    52  34  50 W10G17    29.72S
COOK           PTSUNNY   52  37  58 W12       29.75F
WALKER         FAIR      54  35  47 W10G16    29.84F
$$
MNZ012-019>021-037-031400-
   Northeast Minnesota

CITY           SKY/WX    TMP DP  RH WIND       PRES   REMARKS
DULUTH         PTSUNNY   53  35  50 W14       29.80F
ELY            PTSUNNY   52  34  50 W13       29.71F
HIBBING        CLOUDY    52  36  54 W12G18    29.77F
EVELETH        FAIR      52  37  58 W8        29.78F
DULUTH HARBOR  FAIR      54  39  58 SW12      29.81S
TWO HARBORS    CLOUDY    55  39  54 W10G16    29.76S
SILVER BAY     FAIR      54  34  47 W6        29.73F
GRAND MARAIS     N/A     41  35  79 W8        29.69F
G MARAIS ARPRT LGT RAIN  50  28  43 W6        29.70F
$$
MNZ029>031-032-039>041-046>048-054>057-064-031400-
   West Central Minnesota

CITY           SKY/WX    TMP DP  RH WIND       PRES   REMARKS
FERGUS FALLS   FAIR      46  39  76 W5        29.93S
WHEATON        FAIR      54  45  71 SW8       29.97F
MORRIS         FAIR      48  41  76 W5        29.95F
ALEXANDRIA     FAIR      51  40  65 NW13      29.95F
ELBOW LAKE     FAIR      48  40  74 SW8       29.96S
WADENA         FAIR      48  39  71 W9        29.90F
GLENWOOD       FAIR      50  39  66 W9        29.95F
APPLETON       FAIR      48  43  81 W7        29.97S
BENSON         FAIR      48  39  71 CALM      29.96F
ORTONVILLE     FAIR      52  41  66 W5        29.97F
MADISON        FAIR      48  39  71 W8        29.99R
WILLMAR        FAIR      48  39  71 W5        29.97F
$$
MNZ033>034-036-042>043-049>051-058-059-031400-
   Central Minnesota

CITY           SKY/WX    TMP DP  RH WIND       PRES   REMARKS
ST CLOUD       FAIR      51  40  65 W5        29.92F
SAUK CENTRE    FAIR      48  41  75 W5        29.94F
PAYNESVILLE    FAIR      47  39  74 W7        29.95F
AITKIN         FAIR      54  34  47 W6        29.85F
PINE RIVER     FAIR      50  37  62 W6        29.91S
BRAINERD       FAIR      51  37  58 W12       29.89F
STAPLES        FAIR      52  37  58 W13       29.90F
LONG PRAIRIE   FAIR      50  37  62 W10       29.93F
LITTLE FALLS   FAIR      50  36  57 W6        29.91F
LITCHFIELD     FAIR      50  39  66 W7        29.96R
BUFFALO        FAIR      49  38  67 SW5       29.94S
MAPLE LAKE     FAIR      50  40  68 W5        29.94S
HUTCHINSON     FAIR      47  40  76 W9        29.97S
$$
MNZ037-044-045-052-053-031400-
   East Central Minnesota

CITY           SKY/WX    TMP DP  RH WIND       PRES   REMARKS
PRINCETON        N/A     52  39  62 W3        29.91F
MORA           FAIR      50  37  62 W3        29.90F
CAMBRIDGE      FAIR      54  39  58 W5        29.88F
RUSH CITY      FAIR      51  39  61 W6        29.89F
MOOSE LAKE     PTSUNNY   54  34  47 W9        29.83F
HINCKLEY       FAIR      50  39  66 W6        29.88S
CLOQUET        CLOUDY    54  32  43 W10       29.82F
MCGREGOR       FAIR      54  36  50 W9        29.85F
$$
MNZ071>073-080-081-089-090-097-098-031400-
   Southwest Minnesota

CITY           SKY/WX    TMP DP  RH WIND       PRES   REMARKS
MONTEVIDEO     FAIR      50  39  66 NW6       29.99S
GRANITE FALLS  FAIR      51  42  70 SW6       30.00S
CANBY          FAIR      52  44  76 CALM      30.00F
MARSHALL       FAIR      53  42  66 W8        29.99S
REDWOOD FALLS  FAIR      51  39  63 W10       29.98R
OLIVIA         FAIR      50  41  71 W6        29.97R
PIPESTONE      FAIR      46  43  87 W3        30.01S
WINDOM         FAIR      50  43  76 CALM      30.00S
WORTHINGTON    FAIR      51  41  68 W6        30.02S
JACKSON        FAIR      50  39  66 W3        30.00F
TRACY          FAIR      53  42  68 SW6       30.00S
SLAYTON        FAIR      49  40  70 W6        30.01S
$$
MNZ065>067-074>077-082>085-091>093-031400-
   South Central Minnesota

CITY           SKY/WX    TMP DP  RH WIND       PRES   REMARKS
MANKATO        FAIR      50  39  66 W10       29.97S
NEW ULM        FAIR      50  43  76 W9        29.97F
ST JAMES       FAIR      46  39  76 SW8       29.99F
FAIRMONT       FAIR      50  39  66 W8        29.99S
GLENCOE        FAIR      49  42  77 W7        29.95S
FARIBAULT      FAIR      48  43  81 SW3       29.96S
OWATONNA       FAIR      50  41  71 W6        29.97S
WASECA         FAIR      46  39  76 SW7       29.98S
ALBERT LEA     FAIR      52  41  66 W6        29.98S
$$
MNZ078>079-086>088-094>096-031400-
   Southeast Minnesota

CITY           SKY/WX    TMP DP  RH WIND       PRES   REMARKS
ROCHESTER      FAIR      51  43  74 W10       29.97F
RED WING       FAIR      50  43  76 CALM      29.93S
STANTON        FAIR      52  41  65 SW6       29.94S
DODGE CENTER   FAIR      48  41  76 W10       29.96S
WINONA         FAIR      50  45  81 CALM      29.95F
AUSTIN         FAIR      48  41  76 SW3       29.97F
PRESTON        FAIR      51  39  65 W9        29.98S
$$
ABBREVIATIONS USED IN REMARKS
   TC - TEMPERATURES IN CELSIUS
  WCI - WIND CHILL INDEX
   HX - HEAT INDEX
  VSB - VISIBILITY
$$




USA.gov is the U.S. government's official web portal to all federal, state and local government web resources and services.